contact:dominique.lefevre@mio.osupytheas.fr, maurice.libes@osupytheas.fr, didier.mallarino@osupytheas.fr
Project:EMSO http://www.emso-fr.org/EMSO-France
Depth: 2436.0 m
Title:EMSO Ligure Ouest : Data MII capteur AQUADOPP
Date,Latitude,Longitude,X_East,Y_North,Z_Up,Amplitude_X,Amplitude_Y,Amplitude_Z,Batterie,SoundSpeed,Heading,Pitch,Roll,Pressure,TIS,Speed,Direction
, degrees North, degrees East, m.s-1, m.s-1,m.s-1, 1, 1, 1, Volt, m.s-1, degree, degree, degree, dbar, degree_C, m.s-1, degree
2021-01-31T00:04:03,42.805,6.029,0.013,-0.021,0.015,110.0,113.0,105.0,13.4,1505.3,324.9,-0.8,1.8,2470.394,13.31,0.024,148.2
2021-01-31T00:07:03,42.805,6.029,-0.012,-0.006,0.015,110.0,111.0,106.0,13.4,1505.3,324.0,-0.7,1.8,2470.354,13.32,0.013,243.4
2021-01-31T00:10:03,42.805,6.029,-0.011,-0.01,-0.011,111.0,111.0,106.0,13.4,1505.3,326.8,-0.7,1.8,2470.353,13.32,0.014,227.7
2021-01-31T00:13:03,42.805,6.029,-0.002,-0.017,0.029,110.0,111.0,106.0,13.3,1505.3,326.3,-0.7,1.8,2470.341,13.33,0.017,186.7
2021-01-31T00:16:03,42.805,6.029,-0.003,-0.016,-0.019,111.0,111.0,106.0,13.3,1505.3,322.8,-0.7,1.9,2470.334,13.33,0.016,190.6
2021-01-31T00:19:03,42.805,6.029,-0.019,-0.012,0.003,110.0,110.0,105.0,13.4,1505.3,324.7,-0.7,1.8,2470.354,13.33,0.022,237.7
2021-01-31T00:22:03,42.805,6.029,0.027,-0.017,0.026,109.0,109.0,105.0,13.4,1505.3,326.4,-0.7,1.8,2470.305,13.33,0.031,122.2
2021-01-31T00:25:03,42.805,6.029,0.011,0.0,0.029,109.0,110.0,105.0,13.4,1505.3,324.7,-0.7,1.9,2470.346,13.33,0.011,90.0
2021-01-31T00:28:03,42.805,6.029,-0.03,-0.019,-0.011,110.0,110.0,106.0,13.3,1505.3,324.8,-0.7,1.8,2470.304,13.33,0.035,237.7
2021-01-31T00:31:03,42.805,6.029,0.001,-0.016,0.009,109.0,111.0,105.0,13.4,1505.3,326.0,-0.7,1.8,2470.316,13.33,0.016,176.4
2021-01-31T00:34:03,42.805,6.029,0.0,-0.036,-0.012,110.0,111.0,105.0,13.3,1505.3,325.2,-0.7,1.8,2470.338,13.33,0.036,180.0
2021-01-31T00:37:03,42.805,6.029,-0.025,-0.017,-0.009,109.0,110.0,106.0,13.4,1505.3,324.2,-0.7,1.8,2470.274,13.33,0.03,235.8
2021-01-31T00:40:03,42.805,6.029,-0.017,-0.021,-0.011,110.0,112.0,105.0,13.3,1505.3,325.2,-0.7,1.8,2470.265,13.33,0.027,219.0
2021-01-31T00:43:03,42.805,6.029,-0.014,-0.034,0.0,110.0,112.0,106.0,13.4,1505.3,324.2,-0.7,1.9,2470.341,13.33,0.036,202.4
2021-01-31T00:46:03,42.805,6.029,0.013,-0.016,-0.029,110.0,110.0,105.0,13.3,1505.3,323.5,-0.7,1.8,2470.301,13.33,0.02,140.9
2021-01-31T00:49:03,42.805,6.029,-0.024,-0.015,-0.016,110.0,111.0,106.0,13.4,1505.3,326.4,-0.7,1.8,2470.276,13.33,0.028,238.0
2021-01-31T00:52:03,42.805,6.029,0.024,-0.017,0.0,109.0,112.0,105.0,13.3,1505.3,326.5,-0.7,1.8,2470.269,13.33,0.029,125.3
2021-01-31T00:55:03,42.805,6.029,0.001,-0.007,0.009,109.0,111.0,105.0,13.4,1505.3,325.2,-0.7,1.8,2470.294,13.33,0.007,171.9
2021-01-31T00:58:03,42.805,6.029,-0.018,-0.04,0.021,109.0,111.0,105.0,13.4,1505.3,324.2,-0.7,1.8,2470.277,13.33,0.043,204.2
2021-01-31T01:04:03,42.805,6.029,-0.001,-0.037,-0.015,110.0,112.0,106.0,13.4,1505.3,327.2,-0.8,1.8,2470.348,13.31,0.037,181.5
2021-01-31T01:07:03,42.805,6.029,-0.023,-0.031,0.004,110.0,111.0,105.0,13.4,1505.3,323.2,-0.7,1.8,2470.331,13.32,0.038,216.6
2021-01-31T01:10:03,42.805,6.029,0.011,-0.047,0.006,110.0,111.0,105.0,13.3,1505.3,325.4,-0.7,1.8,2470.306,13.32,0.048,166.8
2021-01-31T01:13:03,42.805,6.029,-0.014,-0.043,0.016,110.0,109.0,105.0,13.4,1505.3,326.2,-0.7,1.8,2470.277,13.33,0.045,198.0
2021-01-31T01:16:03,42.805,6.029,0.002,-0.018,-0.022,110.0,111.0,107.0,13.3,1505.3,324.4,-0.7,1.8,2470.274,13.33,0.018,173.7
2021-01-31T01:19:03,42.805,6.029,-0.029,-0.02,-0.009,110.0,111.0,108.0,13.3,1505.3,327.8,-0.7,1.8,2470.309,13.33,0.035,235.4
2021-01-31T01:22:03,42.805,6.029,-0.018,-0.018,0.022,110.0,110.0,106.0,13.4,1505.3,323.3,-0.7,1.8,2470.303,13.33,0.025,225.0
2021-01-31T01:25:03,42.805,6.029,-0.001,-0.019,0.013,110.0,112.0,105.0,13.4,1505.3,322.8,-0.7,1.8,2470.319,13.33,0.019,183.0
2021-01-31T01:28:03,42.805,6.029,-0.019,-0.029,0.003,110.0,112.0,106.0,13.3,1505.3,325.6,-0.7,1.8,2470.271,13.33,0.034,213.2
2021-01-31T01:31:03,42.805,6.029,-0.024,-0.053,-0.005,109.0,111.0,106.0,13.4,1505.3,325.1,-0.7,1.8,2470.278,13.33,0.058,204.4
2021-01-31T01:34:03,42.805,6.029,0.0,-0.01,-0.014,110.0,110.0,106.0,13.4,1505.3,326.5,-0.7,1.8,2470.28,13.33,0.01,180.0
2021-01-31T01:37:03,42.805,6.029,-0.002,-0.025,0.029,110.0,110.0,106.0,13.3,1505.3,324.2,-0.7,1.8,2470.251,13.33,0.025,184.6
2021-01-31T01:40:03,42.805,6.029,-0.016,-0.022,0.004,109.0,110.0,105.0,13.3,1505.3,323.7,-0.7,1.8,2470.272,13.33,0.027,216.0
2021-01-31T01:43:03,42.805,6.029,-0.019,-0.028,-0.024,111.0,110.0,105.0,13.4,1505.3,325.3,-0.7,1.9,2470.282,13.33,0.033,214.2
2021-01-31T01:46:03,42.805,6.029,-0.018,-0.021,-0.008,109.0,112.0,105.0,13.4,1505.3,326.3,-0.7,1.8,2470.299,13.33,0.027,220.6
2021-01-31T01:49:03,42.805,6.029,-0.014,-0.031,0.026,109.0,110.0,104.0,13.4,1505.3,326.0,-0.7,1.8,2470.299,13.33,0.034,204.3
2021-01-31T01:52:03,42.805,6.029,-0.008,-0.032,-0.004,109.0,110.0,105.0,13.4,1505.3,326.2,-0.7,1.8,2470.253,13.33,0.032,194.0
2021-01-31T01:55:03,42.805,6.029,0.023,0.003,0.004,110.0,109.0,104.0,13.3,1505.3,326.3,-0.7,1.9,2470.22,13.33,0.023,82.6
2021-01-31T01:58:03,42.805,6.029,-0.027,-0.012,-0.002,109.0,112.0,105.0,13.4,1505.3,327.0,-0.7,1.8,2470.288,13.33,0.029,246.0
2021-01-31T02:04:03,42.805,6.029,-0.002,-0.042,-0.019,109.0,111.0,104.0,13.4,1505.3,324.6,-0.8,1.8,2470.329,13.31,0.042,182.7
2021-01-31T02:07:03,42.805,6.029,-0.026,-0.023,-0.044,109.0,109.0,105.0,13.4,1505.3,327.0,-0.7,1.8,2470.272,13.32,0.034,228.5
2021-01-31T02:10:03,42.805,6.029,0.0,-0.02,0.012,109.0,110.0,105.0,13.3,1505.3,327.1,-0.7,1.8,2470.268,13.32,0.02,180.0
2021-01-31T02:13:03,42.805,6.029,-0.039,-0.006,-0.002,109.0,110.0,105.0,13.4,1505.3,327.6,-0.7,1.8,2470.274,13.33,0.039,261.3
2021-01-31T02:16:03,42.805,6.029,-0.017,-0.017,-0.009,109.0,109.0,105.0,13.4,1505.3,328.1,-0.7,1.8,2470.218,13.33,0.024,225.0
2021-01-31T02:19:03,42.805,6.029,0.014,-0.021,-0.027,110.0,109.0,104.0,13.3,1505.3,326.8,-0.7,1.9,2470.279,13.33,0.025,146.3
2021-01-31T02:22:03,42.805,6.029,-0.028,-0.008,-0.009,108.0,110.0,104.0,13.4,1505.3,324.4,-0.7,1.8,2470.235,13.33,0.029,254.1
2021-01-31T02:25:03,42.805,6.029,-0.015,-0.031,-0.014,108.0,110.0,104.0,13.4,1505.3,326.7,-0.7,1.8,2470.309,13.33,0.034,205.8
2021-01-31T02:28:03,42.805,6.029,0.005,-0.009,0.025,109.0,110.0,104.0,13.4,1505.3,327.8,-0.7,1.8,2470.244,13.33,0.01,150.9
2021-01-31T02:31:03,42.805,6.029,-0.006,-0.016,0.009,109.0,111.0,105.0,13.4,1505.3,326.7,-0.7,1.8,2470.278,13.33,0.017,200.6
2021-01-31T02:34:03,42.805,6.029,-0.024,-0.036,-0.022,109.0,110.0,105.0,13.4,1505.3,324.2,-0.7,1.8,2470.251,13.33,0.043,213.7
2021-01-31T02:37:03,42.805,6.029,-0.012,-0.024,-0.007,108.0,110.0,105.0,13.3,1505.3,327.5,-0.7,1.8,2470.279,13.33,0.026,206.6
2021-01-31T02:40:03,42.805,6.029,-0.016,-0.013,-0.007,107.0,111.0,105.0,13.3,1505.3,324.5,-0.7,1.8,2470.281,13.33,0.02,230.9
2021-01-31T02:43:03,42.805,6.029,-0.045,-0.012,-0.011,109.0,111.0,104.0,13.4,1505.3,327.1,-0.7,1.8,2470.241,13.33,0.046,255.1
2021-01-31T02:46:03,42.805,6.029,-0.028,-0.03,0.019,108.0,111.0,104.0,13.4,1505.3,323.5,-0.7,1.8,2470.276,13.33,0.041,223.0
2021-01-31T02:49:03,42.805,6.029,-0.017,-0.013,-0.019,108.0,109.0,105.0,13.3,1505.3,327.7,-0.7,1.8,2470.248,13.33,0.021,232.6
2021-01-31T02:52:03,42.805,6.029,-0.028,-0.014,0.019,108.0,109.0,105.0,13.4,1505.3,326.8,-0.7,1.9,2470.263,13.33,0.031,243.4
2021-01-31T02:55:03,42.805,6.029,-0.027,-0.016,-0.023,109.0,110.0,105.0,13.4,1505.3,327.8,-0.7,1.8,2470.236,13.33,0.031,239.3
2021-01-31T02:58:03,42.805,6.029,-0.003,-0.013,0.006,108.0,110.0,106.0,13.3,1505.3,323.0,-0.7,1.8,2470.242,13.33,0.013,193.0
2021-01-31T03:04:03,42.805,6.029,-0.028,-0.03,-0.008,107.0,111.0,105.0,13.3,1505.3,323.3,-0.7,1.8,2470.329,13.31,0.041,223.0
2021-01-31T03:07:03,42.805,6.029,-0.005,-0.026,-0.007,110.0,111.0,104.0,13.3,1505.3,325.0,-0.7,1.9,2470.253,13.32,0.026,190.9
2021-01-31T03:10:03,42.805,6.029,-0.032,-0.011,-0.017,109.0,110.0,104.0,13.3,1505.3,327.2,-0.7,1.8,2470.26,13.32,0.033,251.0
2021-01-31T03:13:03,42.805,6.029,-0.019,-0.019,-0.033,109.0,110.0,104.0,13.4,1505.3,323.4,-0.7,1.8,2470.301,13.33,0.026,225.0
2021-01-31T03:16:03,42.805,6.029,-0.009,-0.016,0.005,108.0,111.0,105.0,13.4,1505.3,325.2,-0.7,1.8,2470.299,13.33,0.018,209.4
2021-01-31T03:19:03,42.805,6.029,-0.001,-0.027,-0.035,109.0,113.0,105.0,13.4,1505.3,326.4,-0.7,1.8,2470.291,13.33,0.027,182.1
2021-01-31T03:22:03,42.805,6.029,0.006,-0.005,-0.016,109.0,112.0,105.0,13.4,1505.3,323.7,-0.7,1.8,2470.282,13.33,0.007,129.8
2021-01-31T03:25:03,42.805,6.029,-0.03,-0.023,0.015,108.0,110.0,105.0,13.4,1505.3,324.7,-0.7,1.8,2470.253,13.33,0.037,232.5
2021-01-31T03:28:03,42.805,6.029,-0.021,-0.002,-0.018,108.0,109.0,105.0,13.3,1505.3,327.5,-0.7,1.9,2470.261,13.33,0.021,264.6
2021-01-31T03:31:03,42.805,6.029,0.015,-0.014,-0.024,109.0,111.0,104.0,13.3,1505.3,325.2,-0.7,1.8,2470.261,13.33,0.02,133.0
2021-01-31T03:34:03,42.805,6.029,-0.026,-0.023,-0.004,108.0,109.0,104.0,13.4,1505.3,326.0,-0.7,1.9,2470.249,13.33,0.034,228.5
2021-01-31T03:37:03,42.805,6.029,-0.017,-0.01,0.002,109.0,109.0,104.0,13.4,1505.3,325.6,-0.7,1.8,2470.223,13.33,0.019,239.5
2021-01-31T03:40:03,42.805,6.029,-0.006,-0.024,-0.027,108.0,108.0,104.0,13.4,1505.3,322.9,-0.7,1.8,2470.282,13.33,0.024,194.0
2021-01-31T03:43:03,42.805,6.029,-0.014,-0.016,0.004,109.0,108.0,104.0,13.4,1505.3,327.1,-0.7,1.9,2470.25,13.33,0.021,221.2
2021-01-31T03:46:03,42.805,6.029,-0.002,-0.02,-0.013,107.0,108.0,105.0,13.4,1505.3,324.7,-0.7,1.8,2470.299,13.33,0.02,185.7
2021-01-31T03:49:03,42.805,6.029,-0.008,-0.022,0.002,111.0,109.0,105.0,13.4,1505.3,325.3,-0.7,1.8,2470.242,13.33,0.023,200.0
2021-01-31T03:52:03,42.805,6.029,-0.022,-0.009,0.0,109.0,109.0,108.0,13.4,1505.3,326.4,-0.7,1.8,2470.268,13.33,0.023,247.8
2021-01-31T03:55:03,42.805,6.029,-0.012,-0.01,-0.007,109.0,110.0,105.0,13.4,1505.3,327.2,-0.7,1.8,2470.283,13.33,0.015,230.2
2021-01-31T03:58:03,42.805,6.029,-0.023,-0.014,-0.005,108.0,110.0,105.0,13.4,1505.3,323.0,-0.7,1.8,2470.267,13.33,0.026,238.7
2021-01-31T04:04:03,42.805,6.029,-0.017,-0.024,0.023,108.0,111.0,106.0,13.4,1505.3,324.0,-0.7,1.8,2470.342,13.31,0.029,215.3
2021-01-31T04:07:03,42.805,6.029,-0.022,-0.022,-0.007,108.0,111.0,105.0,13.4,1505.3,326.9,-0.7,1.8,2470.327,13.32,0.031,225.0
2021-01-31T04:10:03,42.805,6.029,-0.022,-0.023,-0.02,110.0,111.0,105.0,13.3,1505.3,324.1,-0.7,1.8,2470.28,13.32,0.031,223.7
2021-01-31T04:13:03,42.805,6.029,-0.029,-0.015,-0.034,109.0,111.0,104.0,13.4,1505.3,324.9,-0.7,1.8,2470.293,13.33,0.032,242.6
2021-01-31T04:16:03,42.805,6.029,-0.003,-0.016,0.026,109.0,109.0,106.0,13.4,1505.3,324.6,-0.7,1.8,2470.313,13.33,0.016,190.6
2021-01-31T04:19:03,42.805,6.029,-0.023,-0.024,0.001,110.0,110.0,105.0,13.4,1505.3,325.0,-0.7,1.8,2470.298,13.33,0.033,223.8
2021-01-31T04:22:03,42.805,6.029,0.0,-0.011,0.016,109.0,110.0,104.0,13.3,1505.3,326.6,-0.7,1.8,2470.299,13.33,0.011,180.0
2021-01-31T04:25:03,42.805,6.029,0.009,-0.019,0.001,110.0,109.0,104.0,13.3,1505.3,326.8,-0.7,1.8,2470.285,13.33,0.021,154.7
2021-01-31T04:28:03,42.805,6.029,-0.03,-0.021,-0.037,110.0,112.0,105.0,13.4,1505.3,323.9,-0.7,1.8,2470.265,13.33,0.036,235.0
2021-01-31T04:31:03,42.805,6.029,-0.017,-0.03,-0.013,109.0,112.0,105.0,13.4,1505.3,326.1,-0.7,1.8,2470.294,13.33,0.034,209.5
2021-01-31T04:34:03,42.805,6.029,-0.022,-0.007,0.004,110.0,112.0,104.0,13.3,1505.3,325.0,-0.7,1.8,2470.258,13.33,0.023,252.4
2021-01-31T04:37:03,42.805,6.029,-0.045,-0.007,-0.001,110.0,111.0,105.0,13.4,1505.3,327.3,-0.7,1.8,2470.327,13.33,0.045,261.2
2021-01-31T04:40:03,42.805,6.029,-0.018,-0.023,-0.021,109.0,110.0,105.0,13.4,1505.3,328.4,-0.7,1.8,2470.296,13.33,0.029,218.0
2021-01-31T04:43:03,42.805,6.029,0.001,-0.005,0.009,109.0,112.0,104.0,13.3,1505.3,325.2,-0.7,1.8,2470.319,13.33,0.005,168.7
2021-01-31T04:49:03,42.805,6.029,-0.026,-0.016,0.01,111.0,110.0,105.0,13.4,1505.3,325.6,-0.7,1.9,2470.325,13.31,0.03,238.4
2021-01-31T04:52:03,42.805,6.029,-0.018,-0.025,-0.017,110.0,111.0,105.0,13.3,1505.3,326.1,-0.7,1.8,2470.321,13.32,0.03,215.8
2021-01-31T04:55:03,42.805,6.029,-0.008,-0.011,-0.018,110.0,111.0,105.0,13.3,1505.3,325.5,-0.7,1.9,2470.312,13.32,0.013,216.0
2021-01-31T04:58:03,42.805,6.029,-0.017,0.003,-0.005,110.0,111.0,106.0,13.4,1505.3,326.1,-0.7,1.8,2470.345,13.33,0.017,280.0
2021-01-31T05:04:03,42.805,6.029,-0.027,0.0,0.002,110.0,109.0,104.0,13.4,1505.3,325.1,-0.7,1.8,2470.333,13.31,0.026,270.0
2021-01-31T05:07:03,42.805,6.029,-0.014,-0.004,-0.025,110.0,112.0,105.0,13.4,1505.3,328.2,-0.7,1.8,2470.356,13.32,0.014,254.1
2021-01-31T05:10:03,42.805,6.029,-0.007,0.001,0.002,110.0,112.0,105.0,13.3,1505.3,323.3,-0.7,1.8,2470.388,13.32,0.007,278.1
2021-01-31T05:13:03,42.805,6.029,-0.01,-0.01,0.01,109.0,113.0,106.0,13.4,1505.3,325.8,-0.7,1.8,2470.322,13.33,0.014,225.0
2021-01-31T05:16:03,42.805,6.029,-0.022,-0.003,-0.025,110.0,113.0,105.0,13.3,1505.3,324.4,-0.7,1.8,2470.357,13.33,0.022,262.2
2021-01-31T05:19:03,42.805,6.029,-0.007,-0.01,0.016,110.0,113.0,105.0,13.4,1505.3,327.9,-0.7,1.8,2470.344,13.33,0.012,215.0
2021-01-31T05:22:03,42.805,6.029,-0.003,-0.021,0.017,111.0,112.0,105.0,13.4,1505.3,324.5,-0.7,1.8,2470.352,13.33,0.021,188.1
2021-01-31T05:25:03,42.805,6.029,-0.01,0.0,-0.001,109.0,110.0,105.0,13.3,1505.3,328.0,-0.7,1.8,2470.379,13.33,0.01,270.0
2021-01-31T05:28:03,42.805,6.029,-0.01,-0.01,-0.003,110.0,111.0,105.0,13.4,1505.3,322.7,-0.7,1.8,2470.316,13.33,0.014,225.0
2021-01-31T05:31:03,42.805,6.029,-0.009,-0.003,-0.012,109.0,111.0,105.0,13.4,1505.3,324.4,-0.7,1.8,2470.337,13.33,0.009,251.6
2021-01-31T05:34:03,42.805,6.029,-0.017,0.001,-0.018,110.0,112.0,105.0,13.4,1505.3,327.9,-0.7,1.8,2470.382,13.33,0.017,273.4
2021-01-31T05:37:03,42.805,6.029,-0.028,-0.025,0.006,110.0,112.0,106.0,13.3,1505.4,326.3,-0.6,1.8,2470.322,13.34,0.037,228.2
2021-01-31T05:40:03,42.805,6.029,-0.008,-0.013,0.012,110.0,113.0,106.0,13.3,1505.4,327.2,-0.7,1.8,2470.332,13.34,0.015,211.6
2021-01-31T05:43:03,42.805,6.029,0.011,-0.012,0.034,111.0,112.0,106.0,13.3,1505.4,324.3,-0.7,1.8,2470.32,13.34,0.016,137.5
2021-01-31T05:46:03,42.805,6.029,0.012,-0.004,-0.004,110.0,113.0,104.0,13.4,1505.4,325.4,-0.7,1.8,2470.334,13.34,0.012,108.4
2021-01-31T05:49:03,42.805,6.029,-0.002,-0.004,0.015,110.0,112.0,106.0,13.3,1505.4,324.4,-0.7,1.8,2470.371,13.34,0.004,206.6
2021-01-31T05:52:03,42.805,6.029,0.003,0.0,0.025,109.0,112.0,106.0,13.3,1505.4,326.9,-0.7,1.8,2470.362,13.34,0.003,90.0
2021-01-31T05:55:03,42.805,6.029,-0.013,-0.015,-0.007,111.0,114.0,105.0,13.4,1505.4,326.7,-0.7,1.8,2470.328,13.34,0.019,220.9
2021-01-31T05:58:03,42.805,6.029,-0.013,0.002,0.016,110.0,111.0,105.0,13.4,1505.4,325.5,-0.7,1.8,2470.363,13.34,0.013,278.7
2021-01-31T06:04:03,42.805,6.029,-0.007,-0.007,0.009,109.0,112.0,106.0,13.4,1505.3,324.6,-0.7,1.8,2470.403,13.32,0.009,225.0
2021-01-31T06:07:03,42.805,6.029,0.035,0.01,0.062,109.0,112.0,106.0,13.4,1505.3,328.1,-0.7,1.9,2470.374,13.33,0.036,74.1
2021-01-31T06:10:03,42.805,6.029,0.004,-0.018,0.008,109.0,113.0,106.0,13.4,1505.3,323.1,-0.7,1.8,2470.409,13.33,0.018,167.5
2021-01-31T06:13:03,42.805,6.029,-0.012,0.003,0.016,109.0,111.0,105.0,13.4,1505.3,326.9,-0.6,1.8,2470.415,13.33,0.012,284.0
2021-01-31T06:16:03,42.805,6.029,-0.006,-0.009,-0.029,110.0,111.0,106.0,13.4,1505.4,324.0,-0.7,1.8,2470.411,13.34,0.01,213.7
2021-01-31T06:19:03,42.805,6.029,0.0,-0.021,0.035,109.0,110.0,104.0,13.3,1505.4,328.1,-0.7,1.8,2470.389,13.34,0.021,180.0
2021-01-31T06:22:03,42.805,6.029,0.019,-0.006,0.027,110.0,110.0,104.0,13.4,1505.4,323.3,-0.7,1.8,2470.406,13.34,0.019,107.5
2021-01-31T06:25:03,42.805,6.029,0.017,-0.016,0.03,111.0,109.0,106.0,13.4,1505.4,326.0,-0.7,1.8,2470.384,13.34,0.023,133.3
2021-01-31T06:28:03,42.805,6.029,0.035,0.001,0.027,110.0,110.0,106.0,13.4,1505.4,325.0,-0.7,1.9,2470.408,13.34,0.035,88.4
2021-01-31T06:31:03,42.805,6.029,0.001,-0.017,0.01,110.0,111.0,105.0,13.4,1505.4,324.6,-0.7,1.8,2470.419,13.34,0.017,176.6
2021-01-31T06:34:03,42.805,6.029,0.016,0.0,-0.006,108.0,111.0,106.0,13.3,1505.4,327.6,-0.7,1.8,2470.434,13.34,0.016,90.0
2021-01-31T06:37:03,42.805,6.029,0.023,-0.01,0.017,109.0,111.0,104.0,13.4,1505.4,328.4,-0.7,1.8,2470.422,13.34,0.025,113.5
2021-01-31T06:40:03,42.805,6.029,0.024,0.003,0.041,110.0,111.0,105.0,13.3,1505.4,327.6,-0.7,1.8,2470.436,13.34,0.024,82.9
2021-01-31T06:43:03,42.805,6.029,0.034,0.002,-0.001,109.0,110.0,105.0,13.3,1505.4,326.3,-0.7,1.8,2470.395,13.34,0.034,86.6
2021-01-31T06:46:03,42.805,6.029,0.001,-0.002,0.005,108.0,113.0,106.0,13.4,1505.4,326.0,-0.7,1.8,2470.411,13.34,0.002,153.4
2021-01-31T06:49:03,42.805,6.029,0.004,-0.003,-0.01,110.0,111.0,105.0,13.4,1505.4,322.5,-0.7,1.8,2470.467,13.34,0.005,126.9
2021-01-31T06:52:03,42.805,6.029,0.029,-0.018,0.007,109.0,111.0,106.0,13.4,1505.4,324.1,-0.7,1.9,2470.414,13.34,0.034,121.8
2021-01-31T06:55:03,42.805,6.029,0.021,-0.009,0.018,108.0,111.0,105.0,13.4,1505.4,327.3,-0.7,1.9,2470.446,13.34,0.022,113.2
2021-01-31T06:58:03,42.805,6.029,0.023,0.006,0.023,110.0,112.0,105.0,13.3,1505.4,326.1,-0.7,1.8,2470.468,13.34,0.023,75.4
2021-01-31T07:04:03,42.805,6.029,-0.011,0.004,0.0,110.0,112.0,104.0,13.4,1505.3,323.8,-0.7,1.8,2470.52,13.32,0.011,290.0
2021-01-31T07:07:03,42.805,6.029,-0.017,0.004,0.02,111.0,113.0,106.0,13.3,1505.3,326.0,-0.7,1.8,2470.464,13.33,0.017,283.2
2021-01-31T07:10:03,42.805,6.029,-0.013,-0.01,-0.02,110.0,112.0,106.0,13.4,1505.3,324.5,-0.7,1.8,2470.487,13.33,0.016,232.4
2021-01-31T07:13:03,42.805,6.029,-0.014,-0.01,-0.008,110.0,111.0,104.0,13.3,1505.3,328.3,-0.7,1.8,2470.49,13.33,0.017,234.5
2021-01-31T07:16:03,42.805,6.029,-0.022,-0.002,-0.001,110.0,111.0,105.0,13.4,1505.4,322.9,-0.7,1.8,2470.465,13.34,0.022,264.8
2021-01-31T07:19:03,42.805,6.029,-0.03,-0.013,-0.019,109.0,110.0,105.0,13.3,1505.4,326.7,-0.7,1.8,2470.501,13.34,0.032,246.6
2021-01-31T07:22:03,42.805,6.029,-0.035,0.003,-0.019,109.0,113.0,106.0,13.4,1505.4,325.1,-0.7,1.8,2470.507,13.34,0.035,274.9
2021-01-31T07:25:03,42.805,6.029,-0.012,-0.015,-0.005,110.0,112.0,104.0,13.4,1505.4,324.8,-0.7,1.8,2470.509,13.34,0.019,218.7
2021-01-31T07:28:03,42.805,6.029,-0.013,0.004,-0.029,110.0,112.0,104.0,13.4,1505.4,327.4,-0.7,1.8,2470.439,13.34,0.013,287.1
2021-01-31T07:31:03,42.805,6.029,-0.025,0.006,-0.03,109.0,111.0,105.0,13.4,1505.4,326.7,-0.7,1.8,2470.443,13.34,0.025,283.5
2021-01-31T07:34:03,42.805,6.029,-0.021,-0.003,-0.008,110.0,113.0,105.0,13.3,1505.4,328.1,-0.7,1.8,2470.486,13.34,0.021,261.9
2021-01-31T07:37:03,42.805,6.029,-0.001,-0.002,-0.019,110.0,111.0,104.0,13.4,1505.4,323.0,-0.7,1.8,2470.496,13.34,0.002,206.6
2021-01-31T07:40:03,42.805,6.029,0.013,-0.021,0.02,111.0,111.0,107.0,13.4,1505.4,325.5,-0.7,1.8,2470.512,13.34,0.024,148.2
2021-01-31T07:43:03,42.805,6.029,-0.023,-0.016,0.023,109.0,111.0,105.0,13.4,1505.4,324.0,-0.7,1.8,2470.5,13.34,0.028,235.2
2021-01-31T07:46:03,42.805,6.029,-0.011,-0.003,-0.012,110.0,111.0,105.0,13.4,1505.4,326.8,-0.7,1.8,2470.475,13.34,0.011,254.7
2021-01-31T07:49:03,42.805,6.029,-0.02,0.001,-0.03,107.0,111.0,104.0,13.4,1505.4,326.1,-0.7,1.8,2470.525,13.34,0.02,272.9
2021-01-31T07:52:03,42.805,6.029,-0.009,0.001,-0.007,109.0,110.0,105.0,13.3,1505.4,324.8,-0.7,1.8,2470.528,13.34,0.009,276.3
2021-01-31T07:55:03,42.805,6.029,-0.011,0.007,-0.01,108.0,111.0,104.0,13.4,1505.4,325.5,-0.7,1.8,2470.51,13.34,0.013,302.5
2021-01-31T07:58:03,42.805,6.029,0.002,-0.006,0.019,108.0,111.0,105.0,13.3,1505.4,326.2,-0.7,1.8,2470.493,13.34,0.006,161.6
2021-01-31T08:04:03,42.805,6.029,-0.009,0.007,0.015,109.0,110.0,106.0,13.3,1505.3,327.5,-0.7,1.8,2470.54,13.32,0.011,307.9
2021-01-31T08:07:03,42.805,6.029,-0.02,-0.014,-0.039,110.0,110.0,106.0,13.3,1505.3,323.0,-0.7,1.9,2470.488,13.33,0.024,235.0
2021-01-31T08:10:03,42.805,6.029,-0.012,0.0,0.003,110.0,113.0,105.0,13.3,1505.3,326.5,-0.7,1.9,2470.572,13.33,0.012,270.0
2021-01-31T08:13:03,42.805,6.029,-0.012,-0.004,-0.017,110.0,111.0,104.0,13.4,1505.3,325.0,-0.7,1.8,2470.574,13.33,0.012,251.6
2021-01-31T08:16:03,42.805,6.029,-0.022,0.001,-0.033,110.0,111.0,105.0,13.4,1505.4,327.5,-0.7,1.8,2470.544,13.34,0.022,272.6
2021-01-31T08:19:03,42.805,6.029,-0.019,-0.006,-0.011,108.0,112.0,106.0,13.4,1505.4,324.5,-0.7,1.8,2470.584,13.34,0.019,252.5
2021-01-31T08:22:03,42.805,6.029,-0.013,0.007,-0.023,109.0,111.0,106.0,13.4,1505.4,324.6,-0.7,1.8,2470.523,13.34,0.014,298.3
2021-01-31T08:25:03,42.805,6.029,-0.022,-0.004,-0.015,109.0,111.0,106.0,13.4,1505.4,327.2,-0.7,1.8,2470.532,13.34,0.022,259.7
2021-01-31T08:28:03,42.805,6.029,-0.037,-0.001,-0.037,110.0,111.0,105.0,13.3,1505.4,327.4,-0.7,1.9,2470.5,13.34,0.037,268.5
2021-01-31T08:31:03,42.805,6.029,-0.032,0.001,-0.038,108.0,112.0,105.0,13.3,1505.4,323.3,-0.7,1.8,2470.511,13.34,0.032,271.8
2021-01-31T08:34:03,42.805,6.029,-0.045,0.031,-0.029,109.0,109.0,104.0,13.4,1505.4,326.5,-0.7,1.8,2470.528,13.34,0.054,304.6
2021-01-31T08:37:03,42.805,6.029,-0.019,0.009,0.021,109.0,111.0,104.0,13.4,1505.4,325.4,-0.7,1.8,2470.492,13.34,0.021,295.3
2021-01-31T08:40:03,42.805,6.029,-0.02,0.004,-0.014,109.0,110.0,105.0,13.3,1505.4,326.1,-0.7,1.8,2470.562,13.34,0.02,281.3
2021-01-31T08:43:03,42.805,6.029,-0.009,-0.001,0.002,110.0,109.0,103.0,13.4,1505.4,326.0,-0.7,1.8,2470.498,13.34,0.009,263.7
2021-01-31T08:46:03,42.805,6.029,0.007,0.001,0.016,110.0,110.0,104.0,13.3,1505.4,325.9,-0.7,1.8,2470.532,13.34,0.007,81.9
2021-01-31T08:49:03,42.805,6.029,-0.024,0.03,0.04,109.0,110.0,104.0,13.4,1505.4,325.8,-0.7,1.8,2470.568,13.34,0.038,321.3
2021-01-31T08:52:03,42.805,6.029,-0.018,0.011,0.012,108.0,110.0,105.0,13.3,1505.4,326.7,-0.7,1.8,2470.566,13.34,0.021,301.4
2021-01-31T08:55:03,42.805,6.029,-0.037,-0.019,0.023,109.0,110.0,105.0,13.4,1505.4,326.6,-0.7,1.8,2470.513,13.34,0.041,242.8
2021-01-31T08:58:03,42.805,6.029,-0.017,-0.002,0.03,111.0,110.0,105.0,13.3,1505.4,326.5,-0.7,1.8,2470.5,13.34,0.017,263.3
2021-01-31T09:04:03,42.805,6.029,-0.013,-0.009,-0.005,109.0,110.0,105.0,13.4,1505.3,323.8,-0.7,1.8,2470.586,13.32,0.015,235.3
2021-01-31T09:07:03,42.805,6.029,-0.005,-0.007,0.001,109.0,110.0,105.0,13.4,1505.3,325.6,-0.7,1.8,2470.569,13.32,0.008,215.5
2021-01-31T09:10:03,42.805,6.029,0.005,0.001,0.007,109.0,111.0,105.0,13.4,1505.3,322.6,-0.7,1.8,2470.566,13.33,0.005,78.7
2021-01-31T09:13:03,42.805,6.029,-0.01,0.007,0.0,109.0,111.0,105.0,13.4,1505.3,324.4,-0.7,1.9,2470.546,13.33,0.012,305.0
2021-01-31T09:16:03,42.805,6.029,-0.017,0.009,-0.001,110.0,112.0,105.0,13.4,1505.3,327.0,-0.7,1.8,2470.558,13.33,0.019,297.9
2021-01-31T09:19:03,42.805,6.029,-0.053,-0.004,-0.049,109.0,111.0,104.0,13.3,1505.3,326.2,-0.7,1.8,2470.545,13.33,0.053,265.7
2021-01-31T09:22:03,42.805,6.029,-0.025,0.024,-0.019,109.0,111.0,106.0,13.3,1505.3,325.9,-0.7,1.8,2470.533,13.33,0.034,313.8
2021-01-31T09:25:03,42.805,6.029,-0.013,0.0,-0.01,109.0,112.0,106.0,13.4,1505.3,327.8,-0.7,1.8,2470.538,13.33,0.013,270.0
2021-01-31T09:28:03,42.805,6.029,-0.026,0.018,-0.03,109.0,112.0,105.0,13.4,1505.3,326.1,-0.7,1.8,2470.547,13.33,0.031,304.7
2021-01-31T09:31:03,42.805,6.029,-0.037,0.015,0.002,109.0,111.0,105.0,13.4,1505.3,327.8,-0.8,1.8,2470.53,13.33,0.039,292.1
2021-01-31T09:34:03,42.805,6.029,-0.029,0.008,-0.025,110.0,111.0,104.0,13.3,1505.3,324.4,-0.7,1.8,2470.569,13.33,0.03,285.4
2021-01-31T09:37:03,42.805,6.029,-0.016,-0.011,-0.002,110.0,112.0,105.0,13.4,1505.3,324.7,-0.7,1.8,2470.54,13.33,0.019,235.5
2021-01-31T09:40:03,42.805,6.029,-0.046,0.011,-0.01,109.0,111.0,105.0,13.3,1505.3,326.9,-0.7,1.8,2470.511,13.33,0.047,283.4
2021-01-31T09:43:03,42.805,6.029,-0.022,0.007,0.008,110.0,111.0,105.0,13.3,1505.3,326.7,-0.7,1.8,2470.543,13.33,0.023,287.6
2021-01-31T09:46:03,42.805,6.029,-0.032,0.004,-0.019,108.0,110.0,104.0,13.4,1505.3,326.1,-0.7,1.8,2470.522,13.33,0.032,277.1
2021-01-31T09:49:03,42.805,6.029,0.001,0.013,-0.037,107.0,111.0,104.0,13.4,1505.3,327.2,-0.7,1.8,2470.548,13.33,0.013,4.4
2021-01-31T09:52:03,42.805,6.029,-0.01,0.005,-0.001,110.0,112.0,104.0,13.4,1505.3,325.2,-0.7,1.8,2470.568,13.33,0.011,296.6
2021-01-31T09:55:03,42.805,6.029,-0.02,-0.005,0.0,110.0,111.0,105.0,13.4,1505.3,326.4,-0.7,1.8,2470.506,13.33,0.02,256.0
2021-01-31T09:58:03,42.805,6.029,-0.026,0.014,-0.002,109.0,110.0,106.0,13.4,1505.3,326.3,-0.7,1.8,2470.532,13.33,0.029,298.3